[[{"header":{"parameterUnit":"m.s-1","parameterCategory":1,"la1":30.2991,"la2":30.254,"lo1":-89.0895,"lo2":-89.0444,"dy":0.0017,"dx":0.0017,"nx":28,"ny":28,"refTime":"2025-07-12T03:00:00:Z","depth":0,"parameterNumber":2,"parameterNumberName":"U-component_of_WINDS"},"data":[0,0,0,0,0,0,0,0,0,0,0,0,0,0,0,0,0,0,0,0,0,0,0,0,0,0,0,0,0,0,0,0,0,0,0,0,0,0,0,0,0,0,0,0,0,0,0,0,0,0,0,0,0,0,0,0,0,0,1.2989,1.2991,0,1.3123,1.3124,1.3126,1.3183,1.3183,1.3183,1.3182,1.3317,1.3321,1.3325,0,0,0,0,0,0,0,0,0,0,0,0,0,1.2779,1.2783,1.2989,1.2991,1.2992,1.3123,1.3125,1.3126,1.3183,1.3183,1.3182,1.3182,1.3316,1.3321,1.3325,0,0,0,0,0,0,0,0,0,0,0,0,0,1.2887,1.2784,1.2989,1.3036,1.3042,1.3122,1.3125,1.3127,1.3183,1.3183,1.3182,1.3182,1.3315,1.332,1.3326,1.3368,0,0,1.3343,1.3346,0,0,0,0,0,0,0,0,1.2881,1.2895,1.3028,1.3033,1.304,1.3136,1.31,1.3208,1.3183,1.3129,1.3182,1.3182,1.3257,1.3268,1.3293,1.3375,1.338,1.3344,1.3347,1.335,1.3351,0,0,0,0,0,0,0,1.2874,1.289,1.3042,1.303,1.3037,1.305,1.3065,1.3121,1.3194,1.3134,1.3139,1.3154,1.326,1.3288,1.3297,1.3382,1.3344,1.3349,1.3352,1.3355,1.3503,1.3504,0,0,0,0,0,0,1.2859,1.2883,1.3038,1.3046,1.2958,1.3054,1.3071,1.3105,1.3193,1.3206,1.3154,1.3156,1.3278,1.329,1.3302,1.3357,1.335,1.3355,1.3358,1.3503,1.3504,1.3504,0,0,0,0,0,0,1.2854,1.2872,1.3032,1.2966,1.2987,1.3058,1.3096,1.3108,1.3136,1.3208,1.3221,1.3169,1.3278,1.3294,1.3351,1.3362,1.3358,1.3363,1.3502,1.3503,1.3504,1.3467,0,0,0,0,0,0,1.2848,1.287,1.2888,1.2966,1.2991,1.308,1.3097,1.3111,1.3146,1.315,1.3226,1.3238,1.3279,1.3342,1.3357,1.337,1.3367,1.3502,1.3503,1.3504,1.3467,1.3466,1.3465,0,0,0,0,0,1.284,1.2872,1.2888,1.2907,1.3014,1.3081,1.3095,1.3142,1.3146,1.3164,1.321,1.3235,1.3358,1.3348,1.3365,1.338,1.3501,1.3502,1.3504,1.3468,1.3466,1.3465,0,0,0,0,0,0,1.2792,1.2883,1.2902,1.296,1.3012,1.309,1.3114,1.314,1.3191,1.3193,1.3249,1.3266,1.3318,1.3354,1.3341,1.3424,1.3432,1.3436,1.3399,1.3398,1.3397,1.3387,1.3372,0,0,0,0,0,1.2789,1.2836,1.2912,1.2956,1.2981,1.3043,1.3073,1.3106,1.3162,1.3184,1.3234,1.3287,1.3338,1.337,1.3421,1.3473,1.349,1.3491,1.349,1.3489,1.3492,1.3522,1.3523,1.3508,1.3508,1.3508,0,0,1.2781,1.2837,1.2863,1.2947,1.2992,1.3038,1.3061,1.311,1.3144,1.3191,1.3248,1.3287,1.3349,1.3404,1.343,1.3436,1.35,1.349,1.3489,1.3493,1.3523,1.3524,1.3525,1.3509,1.3509,1.3508,0,0,1.2792,1.2839,1.288,1.2924,1.2991,1.3031,1.3041,1.3115,1.3142,1.3201,1.3236,1.3278,1.3364,1.3407,1.344,1.3465,1.349,1.348,1.3475,1.3503,1.3504,1.3505,1.3514,1.3516,1.3483,1.3483,1.3483,0,1.2775,1.2848,1.2898,1.2945,1.298,1.3025,1.3066,1.3106,1.3185,1.3208,1.3213,1.3322,1.3367,1.3432,1.3438,1.3463,1.3475,1.3472,1.35,1.3501,1.3503,1.3512,1.3515,1.3481,1.3481,1.3482,1.3482,0,1.2822,1.2872,1.2897,1.2973,1.3011,1.3055,1.3111,1.3144,1.3172,1.3211,1.3269,1.3325,1.3387,1.3405,1.3433,1.3473,1.3475,1.3489,1.3497,1.3502,1.3512,1.3515,1.3479,1.3479,1.348,1.348,0,0,1.2808,1.291,1.2919,1.2953,1.303,1.3069,1.3113,1.3175,1.3201,1.3254,1.3292,1.3363,1.3377,1.3414,1.3447,1.3472,1.3487,1.3483,1.3485,1.3482,1.3534,1.3523,1.3527,1.3504,1.3505,1.3505,1.3529,0,1.2829,1.2913,1.2959,1.3023,1.3069,1.3111,1.315,1.32,1.3238,1.3281,1.3323,1.3372,1.3386,1.3409,1.3435,1.348,1.3499,1.3479,1.354,1.3541,1.3523,1.3532,1.3521,1.354,1.3533,1.3534,1.3534,0,1.2865,1.2917,1.2986,1.3056,1.3077,1.3111,1.3171,1.3212,1.3269,1.3295,1.3336,1.3368,1.3416,1.342,1.3487,1.3472,1.3499,1.3525,1.3527,1.3535,1.3538,1.354,1.3548,1.3551,1.354,1.354,1.354,0,1.2847,1.2935,1.2987,1.3015,1.3098,1.3121,1.3157,1.3214,1.3247,1.3299,1.3321,1.3376,1.3407,1.3449,1.3495,1.3494,1.3557,1.3565,1.3579,1.3578,1.3591,1.359,1.3604,1.3608,1.3608,1.3608,1.3608,0,1.2866,1.2906,1.298,1.3012,1.3058,1.311,1.3153,1.3192,1.3242,1.3282,1.3321,1.3357,1.3416,1.3459,1.3495,1.3544,1.3558,1.3579,1.3589,1.3576,1.3573,1.3595,1.3595,1.3609,1.3608,1.3608,1.3608,0,1.2854,1.2905,1.2965,1.3039,1.3058,1.3088,1.3151,1.3183,1.3222,1.3272,1.3286,1.3348,1.34,1.3451,1.3521,1.3545,1.3594,1.3606,1.3575,1.358,1.3591,1.359,1.3621,1.3627,1.3626,1.3626,1.3626,0,1.2863,1.2895,1.2972,1.3001,1.3036,1.3083,1.3118,1.3169,1.3203,1.327,1.3294,1.3349,1.3397,1.3478,1.3529,1.3582,1.3596,1.3603,1.3605,1.3591,1.3596,1.3594,1.3597,1.3602,1.3602,1.3602,1.3602,0,1.2873,1.2896,1.2945,1.3002,1.3042,1.3089,1.3138,1.3159,1.322,1.3256,1.331,1.3347,1.3418,1.3473,1.3532,1.3568,1.3594,1.3601,1.3607,1.3595,1.3575,1.3586,1.3572,1.36,1.36,1.36,1.36,1.36,1.2872,1.2902,1.2961,1.3013,1.3055,1.3099,1.3133,1.3176,1.3223,1.3286,1.3313,1.3367,1.3423,1.3505,1.354,1.3583,1.3589,1.3598,1.36,1.3602,1.3599,1.3568,1.3594,1.3594,1.3594,1.3594,1.3594,0,1.2884,1.2923,1.2971,1.3038,1.3079,1.3101,1.3155,1.3187,1.3235,1.3285,1.333,1.3392,1.3445,1.3499,1.3554,1.3578,1.3592,1.3591,1.359,1.3598,1.359,1.358,1.3579,1.3579,1.3579,1.3579,1.3579,1.3579,1.2895,1.2947,1.2977,1.305,1.3089,1.3143,1.3173,1.3213,1.3253,1.332,1.3365,1.34,1.3451,1.351,1.3559,1.3573,1.3592,1.3587,1.3605,1.3597,1.3598,1.3599,1.3589,1.3591,1.3591,1.3609,1.3609,1.3609]},{"header":{"parameterUnit":"m.s-1","parameterCategory":1,"la1":30.2991,"la2":30.254,"lo1":-89.0895,"lo2":-89.0444,"dy":0.0017,"dx":0.0017,"nx":28,"ny":28,"refTime":"2025-07-12T03:00:00:Z","depth":0,"parameterNumber":3,"parameterNumberName":"V-component_of_WINDS"},"data":[0,0,0,0,0,0,0,0,0,0,0,0,0,0,0,0,0,0,0,0,0,0,0,0,0,0,0,0,0,0,0,0,0,0,0,0,0,0,0,0,0,0,0,0,0,0,0,0,0,0,0,0,0,0,0,0,0,0,4.8127,4.8126,0,4.806,4.8059,4.8058,4.7976,4.7975,4.7973,4.7972,4.79,4.7899,4.7898,0,0,0,0,0,0,0,0,0,0,0,0,0,4.8181,4.818,4.8127,4.8126,4.8125,4.806,4.8059,4.8058,4.7976,4.7975,4.7973,4.7972,4.79,4.7899,4.7898,0,0,0,0,0,0,0,0,0,0,0,0,0,4.814,4.818,4.8127,4.8077,4.8071,4.806,4.8059,4.8058,4.7976,4.7974,4.7973,4.7971,4.79,4.7899,4.7898,4.793,0,0,4.7895,4.7894,0,0,0,0,0,0,0,0,4.8142,4.8138,4.8085,4.808,4.8074,4.8024,4.8051,4.8015,4.7977,4.8012,4.7972,4.797,4.7942,4.7938,4.7929,4.7926,4.7923,4.7895,4.7894,4.7893,4.7893,0,0,0,0,0,0,0,4.8145,4.8141,4.81,4.8084,4.8078,4.8056,4.8048,4.8044,4.7989,4.8009,4.8003,4.7996,4.7939,4.7931,4.7927,4.7922,4.7895,4.7894,4.7893,4.7893,4.7941,4.7943,0,0,0,0,0,0,4.8156,4.8143,4.8102,4.8098,4.8104,4.8057,4.8048,4.8042,4.7989,4.7979,4.7998,4.7993,4.7933,4.7928,4.7924,4.7957,4.7894,4.7892,4.7892,4.7939,4.7942,4.7944,0,0,0,0,0,0,4.8158,4.8153,4.8105,4.8119,4.8111,4.8058,4.8052,4.8042,4.8033,4.798,4.797,4.8,4.7932,4.7926,4.7929,4.7954,4.7892,4.7891,4.7937,4.794,4.7943,4.8025,0,0,0,0,0,0,4.816,4.8154,4.8167,4.812,4.8111,4.8112,4.8054,4.8042,4.8032,4.8024,4.7979,4.797,4.793,4.7931,4.7928,4.7951,4.789,4.7935,4.7939,4.7942,4.802,4.803,4.8039,0,0,0,0,0,4.8162,4.8192,4.8168,4.8163,4.8125,4.8114,4.8109,4.8063,4.8034,4.8046,4.8012,4.7971,4.7952,4.7932,4.7928,4.7951,4.7933,4.7937,4.7942,4.8015,4.8028,4.8039,0,0,0,0,0,0,4.8241,4.8184,4.8157,4.8173,4.8149,4.81,4.8113,4.8078,4.8061,4.8054,4.7997,4.7988,4.7998,4.7975,4.7954,4.7979,4.7936,4.794,4.7994,4.8005,4.8015,4.802,4.7889,0,0,0,0,0,4.8261,4.8257,4.8208,4.8226,4.8216,4.8167,4.816,4.8127,4.81,4.8089,4.8055,4.8029,4.8017,4.801,4.7996,4.8016,4.8004,4.803,4.8039,4.8048,4.8051,4.806,4.807,4.7958,4.7958,4.7958,0,0,4.83,4.8269,4.827,4.8241,4.8219,4.8216,4.8159,4.8158,4.8154,4.8088,4.809,4.8064,4.8031,4.8043,4.8047,4.8024,4.808,4.8053,4.806,4.8059,4.8066,4.8076,4.8086,4.7961,4.7961,4.796,0,0,4.8371,4.8348,4.8361,4.834,4.8307,4.8274,4.8278,4.8234,4.8215,4.8216,4.8166,4.8161,4.8141,4.812,4.8106,4.817,4.8132,4.8167,4.8218,4.8227,4.8236,4.8243,4.8265,4.8274,4.8171,4.8171,4.8171,0,4.8425,4.8419,4.8371,4.8374,4.8362,4.8304,4.8316,4.8297,4.8261,4.8254,4.823,4.8204,4.8178,4.8184,4.82,4.8191,4.8192,4.8172,4.8238,4.8245,4.8252,4.8272,4.8281,4.8176,4.8175,4.8175,4.8174,0,4.8486,4.8483,4.8497,4.8465,4.8455,4.8463,4.8415,4.8411,4.8379,4.8349,4.835,4.8317,4.8295,4.8294,4.8262,4.8295,4.8282,4.8249,4.8205,4.8268,4.8286,4.8293,4.8182,4.818,4.8179,4.8178,0,0,4.8604,4.8547,4.8552,4.8537,4.8497,4.8493,4.8498,4.8478,4.8475,4.8452,4.8454,4.8439,4.8408,4.8393,4.8358,4.8366,4.8419,4.8332,4.833,4.8349,4.8452,4.8478,4.8487,4.8393,4.8395,4.8396,4.8455,0,4.8667,4.8672,4.863,4.8646,4.8643,4.8587,4.8591,4.8566,4.8538,4.853,4.8498,4.8489,4.8449,4.8439,4.8445,4.8411,4.8438,4.8406,4.8393,4.8393,4.8403,4.8497,4.8523,4.8581,4.8462,4.8463,4.8464,0,4.8741,4.8724,4.8741,4.87,4.8697,4.8701,4.8679,4.8673,4.8643,4.8622,4.8606,4.8567,4.8567,4.8526,4.8525,4.8505,4.8496,4.8479,4.848,4.8477,4.8432,4.8495,4.8598,4.8607,4.8475,4.8474,4.8473,0,4.8825,4.8806,4.8813,4.8802,4.8755,4.876,4.874,4.8709,4.87,4.868,4.8673,4.8654,4.8643,4.8629,4.8585,4.8559,4.8589,4.8544,4.857,4.8572,4.8578,4.8579,4.8681,4.8575,4.8575,4.8574,4.8574,0,4.89,4.8912,4.8851,4.8855,4.8867,4.8818,4.883,4.8805,4.8778,4.8776,4.8726,4.8725,4.8668,4.866,4.8625,4.863,4.8625,4.8607,4.8598,4.8612,4.8614,4.8605,4.86,4.8577,4.8576,4.8576,4.8575,0,4.8995,4.8955,4.8959,4.8915,4.8904,4.8915,4.8876,4.8878,4.8847,4.8845,4.8842,4.8793,4.8781,4.8736,4.8713,4.869,4.8705,4.8687,4.8715,4.8709,4.8738,4.8735,4.8838,4.8848,4.8736,4.8737,4.8738,0,4.9045,4.9053,4.901,4.9006,4.8989,4.8983,4.8973,4.8925,4.8917,4.8885,4.889,4.8875,4.886,4.8843,4.8805,4.8787,4.8768,4.8805,4.8764,4.8778,4.8768,4.8768,4.8768,4.8813,4.8815,4.8816,4.8817,0,4.9138,4.9118,4.9107,4.9089,4.908,4.9064,4.9044,4.9043,4.8989,4.8983,4.8971,4.8959,4.8936,4.8921,4.8897,4.8875,4.8837,4.883,4.8835,4.8849,4.8865,4.8856,4.8738,4.8828,4.8827,4.8826,4.8825,4.8825,4.9211,4.9216,4.9187,4.9177,4.9157,4.914,4.914,4.911,4.91,4.9078,4.905,4.9042,4.9011,4.8975,4.8957,4.8948,4.8927,4.8934,4.8936,4.8939,4.8945,4.8867,4.8944,4.8943,4.8943,4.8943,4.8942,0,4.9301,4.928,4.9271,4.9246,4.9238,4.9204,4.9181,4.9176,4.917,4.9146,4.9132,4.9118,4.9104,4.9065,4.9046,4.9047,4.9029,4.9043,4.9042,4.9038,4.8965,4.8963,4.9058,4.9058,4.9058,4.9058,4.9058,4.9058,4.9347,4.9353,4.933,4.9326,4.9304,4.9297,4.9286,4.927,4.9251,4.9238,4.9226,4.9201,4.9171,4.915,4.9134,4.9123,4.9118,4.9138,4.9121,4.9054,4.9043,4.9032,4.903,4.9138,4.9138,4.9194,4.9195,4.9195]}]]